Volver al catálogo

SL-12 R/B(2)

ActivoHEO
NORAD 26557·ROCKET BODY·🇷🇺 Russia

Lanzado Oct 1, 2000 desde Baikonur Cosmodrome

Loading…

Próximos Pases (próximas 24 horas)

TLE

ActualizadoSource: Space-Track

Época: Sep 14, 2026, 09:27 UTC

1 26557U 00059D   26257.39398501 -.00000172  00000-0  00000-0 0  9990
2 26557  15.3765  67.3442 5081413  84.9206 334.9748  1.86636285176930

Sigue SL-12 R/B(2) en tiempo real con AllMySat

Download on the App Store